This is the latest recevied weather packets stored in our database for station/object WA1TYB-13. If no packets are shown the sender has not sent any weather packets the latest 10 day(s).
| Time | Temp. | Humidity | Pressure | Rain* | Wind** | Luminosity | Snow |
|---|---|---|---|---|---|---|---|
| 1777885944 | 10.56° C | 39% | 1015.2 hPa | 0 mm | - | 0 W/m² | - |
| 1777885643 | 11.11° C | 39% | 1015.2 hPa | 0 mm | - | 0 W/m² | - |
| 1777885340 | 11.11° C | 39% | 1014.8 hPa | 0 mm | - | 0 W/m² | - |
| 1777885039 | 11.11° C | 39% | 1014.8 hPa | 0 mm | - | 0 W/m² | - |
| 1777884735 | 11.67° C | 39% | 1014.4 hPa | 0 mm | - | 0 W/m² | - |
| 1777884431 | 11.67° C | 39% | 1014.2 hPa | 0 mm | - | 0 W/m² | - |
| 1777884128 | 11.67° C | 39% | 1014.1 hPa | 0 mm | - | 0 W/m² | - |
| 1777883825 | 11.67° C | 42% | 1014.1 hPa | 0 mm | - | 0 W/m² | - |
| 1777883522 | 11.67° C | 43% | 1013.5 hPa | 0 mm | - | 0 W/m² | - |
| 1777883217 | 11.67° C | 42% | 1013.6 hPa | 0 mm | - | 0 W/m² | - |
| 1777882914 | 7.78° C | 51% | 1013.6 hPa | 0 mm | - | 0 W/m² | - |
| 1777882611 | 7.78° C | 52% | 1013.4 hPa | 0 mm | - | 0 W/m² | - |
| 1777882307 | 7.78° C | 53% | 1013.2 hPa | 0 mm | - | 0 W/m² | - |
| 1777882004 | 7.78° C | 53% | 1013.1 hPa | 0 mm | - | 0 W/m² | - |
| 1777881700 | 8.89° C | 50% | 1012.7 hPa | 0 mm | - | 0 W/m² | - |
| 1777881397 | 9.44° C | 47% | 1012.6 hPa | 0 mm | - | 0 W/m² | - |
| 1777881094 | 9.44° C | 47% | 1011.8 hPa | 0 mm | - | 0 W/m² | - |
| 1777880792 | 10° C | 45% | 1011.7 hPa | 0 mm | - | 0 W/m² | - |
| 1777880490 | 9.44° C | 46% | 1012.1 hPa | 0 mm | - | 0 W/m² | - |
| 1777880188 | 9.44° C | 49% | 1012 hPa | 0 mm | - | 0 W/m² | - |
| 1777879886 | 9.44° C | 47% | 1011.4 hPa | 0 mm | - | 0 W/m² | - |
| 1777879584 | 9.44° C | 47% | 1011.3 hPa | 0 mm | - | 0 W/m² | - |
| 1777879281 | 9.44° C | 46% | 1011.4 hPa | 0 mm | - | 0 W/m² | - |
| 1777878978 | 9.44° C | 46% | 1011.1 hPa | 0 mm | - | 0 W/m² | - |
| 1777878675 | 9.44° C | 46% | 1011.3 hPa | 0 mm | - | 0 W/m² | - |
* Rain latest hour (hover to see other rain measurements)
** Current wind speed in m/s (hover to see current wind gust speed)